PST,Max TemperatureF,Mean TemperatureF,Min TemperatureF,Max Dew PointF,MeanDew PointF,Min DewpointF,Max Humidity, Mean Humidity, Min Humidity, Max Sea Level PressureIn, Mean Sea Level PressureIn, Min Sea Level PressureIn, Max VisibilityMiles, Mean VisibilityMiles, Min VisibilityMiles, Max Wind SpeedMPH, Mean Wind SpeedMPH, Max Gust SpeedMPH,PrecipitationIn, CloudCover, Events, WindDirDegrees
2014-2-1,44,29,14,23,18,12,96,65,33,30.19,30.11,30.03,10,10,10,9,3,13,0.00,0,,144
2014-2-2,36,28,20,27,24,17,92,78,64,30.01,29.91,29.83,10,7,1,10,3,13,0.03,8,Snow,313
2014-2-3,38,24,10,25,20,9,96,72,47,30.09,29.97,29.87,10,6,0,23,5,29,T,7,Fog-Snow,314
2014-2-4,25,19,12,23,15,8,91,86,80,30.35,30.15,30.03,10,5,1,16,10,22,0.01,8,Snow,326
2014-2-5,12,8,4,8,2,-2,86,75,63,30.45,30.33,30.20,10,6,2,17,11,23,T,7,Snow,325
2014-2-6,11,4,-4,3,0,-4,86,80,73,30.31,29.96,29.69,10,4,0,9,3,11,0.11,8,Fog-Snow,313
2014-2-7,31,14,-4,27,11,-4,92,86,80,29.91,29.75,29.62,10,2,0,15,5,20,0.43,7,Fog-Snow,324
2014-2-8,13,9,5,8,7,2,84,80,76,30.12,29.93,29.78,10,3,0,10,3,13,0.17,8,Fog-Snow,306
2014-2-9,31,17,2,23,7,-1,91,83,74,30.21,30.11,29.92,10,7,0,9,3,11,0.00,3,Fog,194
2014-2-10,48,28,7,35,19,6,100,79,58,30.29,30.17,30.07,10,6,0,17,4,23,0.00,3,Fog,158
2014-2-11,45,32,19,33,28,18,96,79,62,30.21,30.11,29.85,10,10,10,26,8,34,T,6,Rain,165
2014-2-12,49,44,38,39,36,34,82,76,70,29.95,29.89,29.81,10,10,10,30,13,39,0.03,5,Rain,191
2014-2-13,48,42,35,35,31,29,79,64,49,30.13,30.01,29.88,10,10,10,18,8,24,T,2,Rain,237
2014-2-14,44,39,34,40,37,33,92,87,82,30.02,29.92,29.80,10,10,8,21,8,26,0.21,7,Rain,180
2014-2-15,59,47,34,43,36,25,100,74,47,29.91,29.70,29.48,10,10,4,29,8,41,0.09,6,Rain,232
2014-2-16,46,38,30,26,24,20,78,58,37,30.05,29.96,29.76,10,10,10,28,11,34,0.00,2,,206
2014-2-17,52,43,34,34,29,22,76,58,39,30.02,29.91,29.80,10,10,10,26,13,37,0.02,4,Rain,231
2014-2-18,52,42,31,38,32,23,96,73,50,30.03,29.90,29.74,10,10,7,33,15,45,0.05,4,Rain,241
2014-2-19,42,33,24,27,22,19,81,63,44,30.22,30.11,29.99,10,8,1,25,8,32,T,4,Snow,226
2014-2-20,46,37,28,30,27,24,92,73,53,30.22,30.19,30.15,10,10,10,25,9,33,0.00,5,,217
2014-2-21,49,38,26,30,26,23,92,64,36,30.22,30.19,30.13,10,10,10,20,7,24,0.00,1,,234
2014-2-22,52,37,22,30,25,20,88,64,39,30.14,30.08,30.01,10,10,10,17,6,23,0.00,2,,230
2014-2-23,53,39,24,35,28,22,85,60,35,30.02,29.98,29.92,10,10,10,16,4,22,0.00,2,,128
2014-2-24,50,41,32,42,35,30,100,83,66,30.15,30.06,30.01,10,6,0,14,6,16,0.01,6,Fog-Rain,314
2014-2-25,32,30,27,30,28,25,100,96,92,30.25,30.17,30.11,10,2,0,16,10,19,T,8,Fog-Rain,324
2014-2-26,29,28,26,28,26,24,100,96,92,30.17,29.97,29.74,8,3,0,10,5,12,T,8,Fog-Rain,316
2014-2-27,41,34,27,38,29,26,100,93,85,29.78,29.73,29.67,10,4,0,10,3,13,0.16,6,Fog-Rain-Snow,20
2014-2-28,43,33,23,37,31,21,100,90,79,29.74,29.57,29.48,10,6,0,16,7,20,0.07,4,Fog-Rain-Snow,312